RH
43 44 43 43 39 35 31 35 54 51 51 64 54 50 43 34 34 32 36 36 39 40 35 37 36 40 43 39 39 36 36 36 41 46 56 58 41 49 59 52 57 61 66 73 76 73 73 83 90 93 93 93 95 93 93 93 93 94 95 95 95 94 91 91 91 87 86 84 85 88 89 90 91 91 93 93 90 90 91 92 91 91 94 93 95 97 96 95 95 95 93 91 89 88 92 97 93
44 45 40 38 34 33 34 36 55 55 56 66 50 45 40 32 35 34 44 51 47 45 39 35 33 33 36 35 33 35 34 33 34 36 52 56 48 58 58 53 55 58 65 71 76 74 73 83 90 94 94 93 94 93 94 95 95 96 93 90 91 89 85 85 85 83 82 81 83 86 88 90 90 91 92 89 88 90 89 93 91 91 95 92 95 97 96 96 96 94 92 90 87 88 92 98 93
49 44 36 34 31 33 35 37 51 55 56 59 45 36 34 35 39 39 48 51 38 34 33 29 31 31 34 36 31 35 33 30 30 31 52 59 58 66 57 50 53 59 63 69 81 77 75 83 90 96 97 93 94 94 94 96 97 96 91 85 84 80 80 80 80 83 83 83 85 87 88 89 91 89 89 88 87 89 90 93 92 92 94 93 96 97 98 96 96 94 91 90 87 89 92 99 93
48 41 34 33 33 35 38 44 49 53 55 51 42 34 36 43 47 48 48 44 35 29 29 24 26 25 28 33 29 31 29 27 30 31 51 59 55 65 60 51 55 60 59 68 83 82 84 87 90 96 96 95 96 97 96 98 97 93 88 83 79 77 82 82 80 83 83 83 85 86 88 89 92 87 85 88 86 87 91 93 93 94 95 96 97 97 99 96 96 93 89 90 89 90 91 98 92
43 38 36 34 37 39 39 45 45 49 51 45 39 36 37 43 49 47 41 42 36 31 30 26 26 23 22 26 25 29 28 25 31 31 47 59 53 60 62 53 57 61 58 65 79 85 90 90 92 95 95 96 97 99 98 97 95 91 87 83 79 77 83 85 83 84 83 84 84 84 87 90 93 87 84 87 85 85 91 93 92 96 96 97 98 98 100 97 96 92 89 89 91 91 92 97 85
39 35 34 33 36 36 42 48 46 46 41 36 34 35 35 35 42 40 33 34 31 29 28 26 25 24 22 23 21 24 26 25 31 35 47 57 52 58 61 54 59 61 56 62 74 83 89 90 93 95 94 96 98 98 96 95 93 91 88 83 80 79 84 87 86 87 86 85 86 86 88 91 90 84 84 88 85 84 91 93 93 98 97 96 98 99 99 97 96 93 89 89 92 92 91 90 70
35 34 34 37 37 35 48 52 46 43 34 29 27 31 34 29 32 33 30 29 28 27 27 28 23 25 28 23 21 24 27 29 36 43 48 50 50 57 58 59 63 61 57 61 71 79 86 89 90 94 95 94 95 98 95 93 93 91 90 83 79 82 86 85 84 87 89 88 87 87 91 95 87 78 82 88 87 87 92 93 94 99 98 97 97 98 99 97 95 90 88 91 93 93 90 77 57
34 36 36 42 45 42 50 52 46 41 33 27 24 29 35 30 30 29 28 29 29 27 27 29 25 28 29 23 24 29 34 36 40 44 46 49 56 57 56 63 64 61 60 63 74 79 83 88 88 92 94 92 91 96 94 89 90 88 89 86 78 79 82 81 79 80 80 81 78 78 86 91 84 76 82 88 89 90 92 93 96 99 98 98 97 98 98 96 92 86 89 93 93 96 89 68 53
34 38 39 43 49 47 48 48 44 37 31 28 27 30 33 32 30 29 29 28 26 25 24 26 31 32 29 27 25 30 40 41 40 42 43 52 61 59 59 67 64 62 64 68 77 81 87 90 89 89 91 91 89 93 90 85 86 83 84 87 82 76 78 79 78 77 72 69 67 66 69 73 76 78 83 89 91 93 94 96 97 98 98 98 98 98 96 92 88 85 91 95 95 97 87 63 50
35 37 41 46 49 52 50 46 43 36 30 27 26 27 29 27 26 29 29 27 26 25 23 22 30 31 29 27 26 35 44 42 42 47 49 53 61 63 66 70 67 67 70 73 79 84 91 92 90 90 91 90 88 90 87 85 84 82 80 80 83 77 75 78 77 78 71 66 65 62 59 62 73 81 87 90 92 95 97 98 98 96 98 98 97 98 95 89 83 82 89 94 95 95 86 64 48
40 39 41 52 56 57 53 46 41 34 27 23 23 23 23 22 23 24 24 25 23 24 23 23 26 25 25 23 32 46 44 43 45 49 53 56 63 67 69 71 70 70 73 76 83 89 90 90 93 91 90 90 88 89 88 88 87 84 75 66 73 75 76 81 79 76 68 66 69 66 63 67 76 84 91 93 93 96 98 99 98 95 96 97 96 94 90 86 81 78 84 92 95 91 82 60 45
48 46 46 59 61 56 50 44 39 33 28 26 24 21 19 19 22 23 24 27 26 28 27 26 25 23 27 24 37 49 44 47 47 45 49 55 65 68 68 68 67 68 70 74 82 90 90 89 94 92 90 90 89 92 92 92 91 87 75 67 72 76 80 84 83 78 68 66 70 70 71 75 81 87 95 96 96 98 99 99 98 97 97 98 97 95 88 85 81 76 83 92 92 82 66 49 44
50 50 53 63 58 51 49 45 41 37 35 30 26 25 22 20 20 22 26 30 32 35 29 24 22 22 27 25 37 47 45 47 47 47 47 56 67 66 66 65 65 65 67 71 77 86 91 91 95 94 92 91 91 93 94 93 94 90 82 80 83 84 84 84 83 79 74 74 73 73 76 79 84 91 97 99 99 99 100 99 98 99 99 98 97 96 92 89 84 82 88 93 93 79 56 43 45
46 46 53 63 57 53 53 50 45 43 40 29 25 27 27 25 23 22 26 30 28 27 23 21 19 22 26 23 34 43 45 46 47 49 48 58 65 64 68 66 66 67 66 70 74 82 91 95 95 93 90 92 93 94 95 94 96 95 90 88 89 91 90 87 82 77 81 88 82 78 82 86 91 95 98 100 100 99 100 99 96 98 99 97 94 91 90 90 89 90 92 95 93 72 49 44 46
42 42 49 60 61 59 56 54 48 45 41 28 25 26 26 26 24 24 24 27 23 18 21 23 20 23 26 24 32 37 41 45 47 49 49 59 64 65 69 66 67 69 69 72 75 81 88 96 96 91 88 89 91 93 95 97 99 98 95 91 91 91 87 85 82 80 87 95 92 87 90 95 97 97 98 100 100 100 100 97 94 97 99 97 94 89 86 85 90 94 94 95 82 56 45 48 48
40 43 53 64 65 64 58 51 48 48 41 28 25 25 25 24 22 24 21 21 21 17 20 22 19 23 24 22 30 37 42 44 46 49 52 60 66 69 71 70 74 73 74 76 77 80 85 94 97 93 89 89 88 87 90 95 96 96 96 92 90 88 83 84 85 86 92 98 96 93 95 97 99 99 98 98 99 100 98 95 96 99 100 98 95 91 88 86 92 91 84 79 62 47 49 50 49
42 50 64 72 67 65 57 48 49 46 36 28 26 25 27 26 21 21 18 17 21 21 21 20 18 20 22 20 27 36 41 44 47 50 54 60 64 69 74 77 80 79 77 76 78 81 83 89 93 92 91 91 88 86 87 87 87 93 98 95 91 88 85 87 89 92 94 97 98 95 96 98 99 100 99 98 99 100 97 95 99 99 98 99 96 92 91 91 93 85 70 60 51 49 52 52 52
50 63 71 73 65 59 50 44 42 38 39 35 29 26 28 28 24 20 19 20 22 23 21 20 19 18 19 20 25 30 34 39 42 47 52 57 60 63 69 74 78 81 80 78 78 80 82 85 87 89 90 90 89 89 88 83 84 92 99 97 95 93 91 90 91 94 94 96 99 97 98 98 98 100 100 100 99 99 98 98 100 97 97 98 96 91 87 90 94 84 69 60 54 53 54 56 56
56 65 71 68 58 49 40 39 36 40 54 47 34 31 28 28 26 22 23 25 24 26 24 22 22 19 19 19 25 29 32 38 40 44 47 50 55 57 62 69 74 77 80 81 78 78 82 83 83 84 86 88 89 89 87 84 87 93 98 98 97 98 97 95 96 96 96 98 100 99 99 95 97 100 99 99 98 98 99 99 97 95 96 95 96 95 89 91 92 82 72 66 62 61 60 60 59
57 66 77 66 49 45 37 37 40 45 54 49 40 35 31 30 27 24 26 27 26 28 27 26 25 23 21 20 29 36 35 39 42 43 42 44 48 49 53 62 70 72 74 79 78 78 80 79 79 80 82 83 85 85 85 86 88 93 97 98 99 100 99 99 99 98 97 98 99 100 97 93 97 99 98 98 97 98 99 99 97 95 95 94 96 97 93 92 85 74 70 69 70 72 70 67 63
55 65 74 59 45 47 39 38 50 53 51 53 53 42 35 35 34 30 27 30 31 27 25 26 25 23 22 21 30 39 37 38 42 43 42 41 42 44 46 51 61 67 70 75 77 77 76 76 76 76 78 78 79 79 80 85 88 93 96 98 100 99 99 100 100 98 94 95 99 100 97 96 98 96 97 99 96 96 98 98 98 97 95 95 97 95 89 87 82 76 74 73 76 78 76 73 69
61 61 59 51 45 46 42 46 54 50 47 52 53 44 36 34 39 36 29 33 32 26 25 24 23 23 24 21 24 32 36 38 39 44 45 41 39 40 44 46 51 58 66 72 74 75 73 74 73 74 75 74 75 75 77 81 85 94 98 99 100 99 100 99 100 99 93 94 99 99 99 99 97 96 98 98 95 94 94 94 95 96 95 96 96 92 87 84 79 76 76 76 80 80 78 76 73
69 63 52 49 47 46 44 52 55 49 52 54 50 50 47 41 40 34 31 34 30 26 26 25 25 24 24 23 22 25 28 31 30 34 38 39 39 37 40 45 48 52 60 68 70 71 70 70 71 71 72 72 74 74 77 80 85 95 99 98 99 100 100 100 99 99 97 97 99 100 100 96 93 97 98 96 95 92 90 89 91 93 95 97 95 90 87 84 78 73 74 77 81 81 80 80 76
73 69 57 51 51 52 46 49 53 52 57 58 58 65 65 56 47 39 36 35 29 28 27 26 26 24 24 24 24 25 25 26 25 25 25 28 32 33 36 40 45 50 56 63 65 66 67 66 67 67 67 69 72 73 76 80 85 93 97 98 99 98 98 100 100 98 100 99 99 100 96 91 91 95 94 93 93 91 89 88 88 92 95 97 96 92 86 81 79 77 79 83 85 85 84 83 78
65 62 52 46 49 52 48 48 51 54 57 60 68 70 63 58 55 51 44 35 30 29 28 27 26 25 25 25 25 25 26 27 26 24 22 23 24 26 30 33 39 46 53 59 61 63 64 65 65 64 65 67 69 71 75 79 85 92 96 97 98 96 94 98 100 99 100 99 99 97 91 88 88 89 90 91 92 90 90 87 87 90 93 95 93 92 84 75 78 84 89 91 91 90 87 85 78
48 44 41 38 40 40 41 42 42 48 52 54 66 64 53 49 50 50 40 33 32 29 29 27 25 25 23 24 24 24 25 26 24 23 22 22 22 22 26 29 32 38 45 53 58 61 62 64 65 63 64 66 67 70 73 77 83 92 95 95 97 96 93 96 100 100 100 98 96 93 89 87 85 86 89 89 90 89 88 88 87 87 89 89 87 87 83 75 80 90 94 95 94 91 87 83 76
36 36 36 35 36 33 33 34 31 35 36 38 50 53 49 42 42 46 38 32 30 27 28 26 23 23 22 22 21 21 22 21 19 19 19 20 23 26 32 36 36 36 39 46 53 58 61 63 63 63 63 64 65 68 71 74 82 91 93 95 97 96 96 97 99 100 99 96 93 91 91 89 85 86 87 85 85 85 86 88 89 89 90 90 88 86 84 83 86 92 94 94 93 89 85 81 77
31 33 35 33 33 32 30 30 28 29 29 28 32 38 41 36 36 40 35 29 26 25 24 21 21 22 21 20 19 20 19 17 19 19 21 24 26 30 36 39 40 40 40 44 48 52 57 61 62 63 64 64 63 66 69 71 79 90 94 96 96 95 98 99 99 100 99 96 93 93 95 93 88 86 85 84 84 84 86 87 89 90 91 93 92 89 88 90 92 94 94 93 91 87 85 81 79
31 32 38 37 33 33 30 27 26 26 27 24 24 32 34 30 29 27 24 24 22 22 20 19 20 20 20 19 17 18 17 18 21 24 25 26 27 29 31 33 35 37 39 42 45 47 50 55 61 63 65 66 63 63 67 71 78 87 94 96 96 95 97 99 99 98 99 98 95 94 94 91 89 87 86 85 85 85 86 88 90 91 91 91 92 92 93 95 95 94 92 89 86 83 82 78 76
34 34 38 41 40 37 28 23 24 24 24 20 25 37 32 25 23 20 20 20 18 19 18 19 18 17 19 18 16 18 20 21 23 28 30 30 32 32 32 33 33 34 35 37 41 45 48 51 57 61 64 67 65 64 65 72 80 86 91 94 95 94 94 98 99 96 98 100 97 94 93 91 90 88 87 86 87 88 88 90 92 93 92 91 91 93 94 95 94 92 89 86 83 81 79 73 72
38 40 40 43 48 42 26 22 24 23 22 16 23 39 34 24 21 20 21 19 19 20 18 18 18 18 18 16 17 18 19 24 29 32 33 34 36 36 36 36 35 35 34 35 36 41 47 51 55 59 62 64 65 66 66 72 79 82 87 91 93 94 92 96 100 96 95 98 99 96 94 95 93 90 89 88 89 89 89 92 95 94 93 92 93 94 95 94 92 90 88 86 83 80 74 68 68
38 48 51 44 45 40 25 20 19 19 20 17 26 38 34 25 20 19 20 19 21 22 20 19 18 18 17 16 18 17 18 28 34 33 34 36 37 38 38 39 39 38 37 36 35 37 43 48 53 57 59 63 65 67 68 72 77 80 86 91 92 93 93 96 99 98 94 95 98 96 95 97 96 95 96 94 91 88 88 92 94 93 92 94 94 95 95 93 92 90 88 86 83 76 65 63 67
38 45 51 43 39 36 24 18 15 16 22 23 27 35 32 25 21 18 18 18 19 21 21 20 19 19 19 19 18 19 26 35 36 34 35 36 37 38 39 41 41 40 40 38 36 36 38 44 50 55 58 62 65 69 72 73 76 80 88 94 93 92 95 98 99 100 97 95 97 97 96 98 98 98 98 97 94 90 90 93 94 93 92 93 93 94 94 92 91 89 87 83 77 69 59 58 65
41 38 39 36 31 29 26 22 17 17 24 27 26 30 30 25 21 19 18 18 20 21 20 19 20 20 20 21 22 28 36 40 37 34 36 36 38 40 39 42 41 39 40 40 41 40 39 42 47 52 57 60 63 68 72 74 76 79 87 95 96 94 95 98 99 99 99 98 99 99 98 97 97 97 95 94 95 93 93 94 92 92 91 90 91 92 91 90 88 87 84 73 64 59 51 51 57
44 41 37 35 29 28 29 26 21 19 25 30 29 29 27 23 20 20 19 18 20 20 19 19 18 17 21 27 31 36 39 39 37 35 35 37 39 41 41 42 41 40 41 43 47 48 47 46 46 50 55 60 62 64 69 75 78 80 87 95 97 99 99 99 100 99 99 100 99 100 98 96 96 96 95 94 95 94 94 94 92 91 89 86 87 89 88 85 83 83 78 65 52 48 45 46 50
39 39 37 39 37 32 27 25 22 23 29 32 30 30 26 24 22 21 19 19 21 21 20 19 19 22 30 36 37 38 39 38 36 35 35 38 40 42 43 43 42 43 44 44 47 53 54 52 50 50 54 62 63 64 72 78 81 84 90 95 95 98 100 99 100 99 100 100 100 100 99 99 98 97 97 95 94 94 93 93 92 90 87 84 85 87 85 82 80 78 71 59 48 43 44 46 46
31 34 37 39 39 36 27 25 24 25 34 34 29 30 27 24 25 24 24 24 24 23 21 21 25 32 38 39 39 38 40 38 35 35 35 38 40 42 44 44 45 45 46 46 48 54 58 58 58 55 56 62 61 64 76 81 84 89 93 95 95 97 100 100 100 100 100 100 100 100 100 100 100 99 99 96 95 95 95 93 91 88 85 84 85 85 84 79 76 74 66 54 44 40 42 46 44
32 38 42 42 42 39 30 27 27 25 35 36 31 34 32 28 28 27 27 26 26 27 28 29 33 37 38 39 40 39 40 39 35 35 36 37 40 43 45 45 47 48 47 48 51 58 63 62 62 60 59 60 58 63 77 84 88 92 93 94 95 98 99 99 100 100 100 100 100 100 100 100 100 100 100 98 96 97 96 93 90 88 85 86 85 82 79 75 72 70 63 50 40 36 37 42 42
37 40 45 48 43 39 34 30 27 25 32 36 33 36 34 29 28 29 27 24 28 36 37 36 36 37 39 40 41 40 42 41 37 37 38 38 40 42 45 46 48 50 50 50 54 60 66 69 67 62 62 66 69 73 80 87 92 92 93 94 94 95 97 100 100 99 99 99 99 100 100 100 100 100 100 99 98 98 96 92 89 87 85 86 85 81 75 72 71 68 62 51 39 35 36 39 38
39 41 46 49 43 44 45 37 30 27 31 35 35 38 35 29 29 30 30 29 34 40 39 39 39 39 40 41 41 41 43 44 41 39 39 39 41 42 45 47 48 50 51 51 55 60 65 72 73 71 74 80 86 89 88 91 93 91 92 92 90 90 95 99 100 99 99 98 98 99 100 100 100 100 100 99 98 97 95 91 89 87 86 85 84 81 75 70 68 64 58 47 36 34 38 42 39
39 41 45 46 42 43 43 36 32 32 34 36 38 44 40 32 33 33 36 38 37 39 39 40 41 39 40 40 41 42 43 45 44 42 42 41 41 43 45 47 49 51 51 51 54 60 62 67 72 75 81 86 89 93 93 93 92 90 90 90 89 91 96 100 100 99 98 98 98 98 98 100 100 100 100 100 99 96 94 92 90 88 87 86 84 81 75 68 63 58 51 41 31 30 34 42 42
43 40 37 37 35 36 37 35 38 44 47 41 43 59 53 35 32 33 38 42 38 39 41 41 41 40 41 42 41 43 43 44 45 43 44 44 43 44 46 48 50 52 52 52 53 58 62 64 67 70 73 78 83 87 90 91 91 90 90 89 89 92 95 97 98 98 97 97 97 97 97 97 98 99 100 100 99 97 95 92 91 90 89 87 83 78 72 64 56 49 43 37 32 29 30 39 42
49 39 35 38 37 38 40 41 47 55 54 42 42 60 59 43 36 31 35 44 42 40 41 41 41 41 42 44 43 44 44 45 46 45 44 45 45 46 48 49 51 53 54 53 53 56 60 61 64 66 67 70 75 81 85 87 88 89 90 89 89 91 90 89 92 95 96 96 95 95 95 94 94 96 97 98 98 97 96 93 90 89 88 85 80 73 64 57 48 41 36 32 32 31 28 33 38
51 37 38 46 45 45 45 45 51 50 47 44 40 47 56 52 41 31 32 43 46 43 43 42 41 42 43 44 45 46 47 47 48 49 47 47 48 47 49 51 51 54 55 54 54 56 58 59 61 63 65 67 70 73 77 80 83 86 91 91 90 92 90 86 87 89 91 93 93 92 92 92 91 91 92 93 93 93 93 91 88 86 84 80 73 63 53 46 38 33 32 30 31 32 30 29 31
45 40 44 45 46 49 48 52 54 47 52 60 46 42 57 55 38 32 34 40 48 47 45 45 44 44 46 46 47 48 48 49 48 49 50 49 49 50 51 52 52 53 55 55 54 55 57 58 59 60 62 64 66 68 69 72 74 77 81 84 85 86 85 83 83 83 84 85 86 86 88 88 87 87 88 88 88 88 87 86 85 82 78 73 64 51 41 34 30 30 32 31 31 33 33 31 29
39 45 48 46 49 49 51 57 55 53 65 71 52 42 56 56 39 35 35 37 48 51 46 47 47 47 49 49 49 49 49 51 50 50 50 50 51 52 52 53 53 53 53 54 54 54 55 56 57 59 60 60 63 66 66 66 67 67 68 70 74 78 78 78 79 78 77 77 78 78 78 78 79 80 82 83 84 85 85 84 81 78 74 68 57 45 38 34 32 35 35 33 34 34 34 35 33
38 47 48 50 52 47 51 54 51 67 77 67 51 41 52 62 47 36 41 43 48 52 50 50 50 49 51 52 51 51 51 53 53 52 52 52 52 53 54 54 54 53 52 52 52 51 52 53 54 55 57 58 59 63 65 64 64 64 64 65 67 70 71 72 74 74 74 75 77 76 74 73 74 75 76 79 82 85 87 86 82 77 70 62 55 50 48 45 42 43 41 38 37 35 34 37 38
44 50 50 55 55 45 50 49 50 77 81 57 45 41 49 62 49 41 55 55 48 49 51 51 52 53 54 54 53 53 53 53 55 56 56 55 55 55 55 54 54 53 52 51 51 50 49 49 50 50 52 55 56 58 61 63 64 64 64 64 65 65 66 66 67 69 70 72 73 75 77 79 79 80 81 80 80 81 83 84 83 81 77 72 71 68 63 57 54 53 50 48 45 41 39 40 41
51 54 55 66 68 59 63 59 56 71 67 48 41 41 48 50 42 48 58 56 50 47 47 48 51 54 56 56 56 55 56 56 56 58 59 58 59 57 56 55 54 53 52 52 52 51 50 49 49 48 49 51 52 54 56 58 61 62 63 64 64 65 65 65 65 66 67 68 69 72 77 81 83 84 85 84 82 77 75 75 77 80 81 80 79 75 68 63 59 56 53 51 48 46 45 44 43
56 56 59 69 73 74 77 67 61 63 54 43 40 47 55 46 40 51 52 51 52 47 45 48 50 53 56 55 57 57 56 57 57 58 60 60 58 57 57 55 54 52 51 52 52 52 52 50 50 50 49 49 49 50 51 53 54 57 60 62 64 65 65 64 65 65 66 67 69 71 74 77 80 81 82 84 83 80 76 73 71 72 74 74 72 68 65 63 59 56 55 52 50 50 49 48 48
54 49 52 60 61 70 76 66 64 66 55 46 49 57 59 51 49 53 50 51 53 49 49 51 51 53 55 55 55 56 56 57 57 57 57 57 56 56 56 54 53 51 50 51 51 51 51 51 51 51 51 51 50 50 50 49 50 51 53 56 60 64 66 68 68 68 68 68 68 69 70 72 74 76 78 82 84 84 83 80 76 74 73 71 67 64 62 62 58 57 57 54 54 54 54 53 52
52 44 51 59 52 54 65 65 61 65 68 62 59 55 46 48 56 53 52 54 52 53 54 53 55 55 54 56 56 56 58 57 57 57 56 55 54 54 54 52 51 50 48 48 49 49 49 49 50 51 52 53 53 52 52 51 50 50 50 52 53 57 62 67 71 72 72 73 72 71 70 70 71 72 74 79 83 85 87 86 85 85 83 78 73 67 64 65 64 63 62 60 61 61 61 59 55
48 45 53 55 47 47 63 72 59 60 79 71 53 49 44 52 63 54 53 58 55 56 56 53 56 55 54 57 57 56 58 56 56 56 55 53 53 53 52 50 50 49 47 46 46 46 46 46 47 50 52 53 54 54 55 54 53 53 52 52 52 52 54 58 62 67 71 73 74 75 75 74 72 72 73 75 80 84 87 89 91 92 92 91 88 83 78 75 74 73 71 70 69 67 64 62 59
48 51 50 46 50 53 62 79 73 69 82 67 45 47 47 52 63 60 58 59 59 58 55 54 55 54 55 56 56 56 55 54 54 53 53 52 51 51 51 48 47 47 46 44 43 42 42 42 42 44 46 48 51 52 53 54 55 54 54 53 54 54 53 53 55 60 64 66 67 70 73 74 74 74 73 73 74 77 81 85 90 94 96 98 99 98 95 91 88 85 83 79 76 70 66 65 64
49 51 49 50 66 71 68 82 87 83 84 69 51 50 45 40 51 63 63 58 59 57 52 55 56 53 55 55 55 55 53 53 53 51 52 51 49 49 48 47 46 45 45 43 42 40 40 39 39 39 40 41 43 45 47 49 50 51 52 52 52 53 53 53 53 54 58 61 62 63 66 69 72 72 72 73 72 72 74 77 81 86 90 95 98 99 100 99 98 97 96 94 91 88 86 81 71
50 54 56 54 62 66 64 70 75 79 86 78 66 59 47 35 38 52 58 52 54 55 52 54 54 50 53 55 55 54 53 53 51 50 50 48 48 47 46 46 45 44 44 42 41 40 39 39 38 38 38 38 38 39 40 41 42 44 45 46 47 47 48 50 49 49 51 54 57 61 63 65 67 67 68 69 70 69 69 70 72 75 78 83 89 94 97 99 100 100 100 100 99 98 99 95 84
57 70 72 63 57 54 57 60 59 69 84 83 81 74 52 37 37 41 46 47 48 49 49 50 50 49 52 54 54 52 51 51 49 47 46 44 45 45 45 46 44 43 43 42 42 41 39 40 39 38 38 38 38 38 38 39 39 39 40 41 41 41 42 43 44 44 44 45 48 54 60 61 61 61 60 61 63 65 64 64 66 69 71 74 79 84 89 93 96 98 98 99 101 100 99 99 95
46 62 68 64 61 60 69 74 61 62 75 75 79 80 56 39 39 38 39 44 44 44 46 47 47 49 52 52 51 50 49 48 47 45 43 42 42 44 45 45 44 43 42 41 42 41 40 40 39 39 39 39 39 39 40 40 39 39 40 40 40 40 39 38 38 39 39 39 39 42 48 51 50 49 49 52 55 55 56 56 55 58 64 69 73 78 84 89 91 93 95 95 96 98 98 99 99
Wind_Speed
5 5 5 6 9 9 6 3 2 3 3 6 7 6 7 7 9 9 7 5 3 3 4 3 2 3 1 3 5 6 5 2 2 1 2 2 6 6 6 6 5 8 11 11 10 18 28 27 25 23 22 21 20 20 20 20 20 20 19 18 18 17 16 14 14 13 14 14 13 12 11 10 10 10 10 10 11 11 12 12 12 13 13 14 14 14 14 15 16 15 16 17 16 15 14 14 15
5 5 6 7 9 7 3 3 3 4 5 7 7 7 7 7 10 8 3 2 3 2 2 3 3 3 2 2 4 6 5 5 5 1 1 6 8 5 5 5 5 8 11 12 10 17 27 27 25 22 22 21 20 20 20 20 19 20 19 19 18 17 16 15 14 13 13 14 14 13 12 11 11 12 11 12 12 12 14 13 13 14 14 15 15 15 15 15 16 16 17 17 16 15 14 15 16
8 7 7 6 6 5 3 3 4 4 6 7 6 6 6 6 6 2 3 3 3 2 1 1 1 1 2 3 4 4 4 5 5 1 3 7 6 4 5 5 6 7 11 12 10 15 25 27 25 22 21 21 20 20 20 20 20 21 20 19 18 17 16 14 15 14 13 13 14 14 13 13 13 13 13 12 12 13 14 13 13 15 15 16 16 17 16 16 17 16 17 16 15 14 14 14 16
6 7 9 6 4 4 3 3 4 5 7 6 5 3 1 2 3 4 4 3 2 2 2 2 2 1 4 5 3 3 3 2 3 4 3 5 4 5 4 3 6 7 11 13 10 13 21 24 24 22 21 21 20 20 20 21 21 21 20 19 18 18 17 15 15 15 14 13 12 12 13 14 13 14 14 13 13 13 14 13 13 15 16 17 17 17 17 18 18 18 18 17 15 14 14 14 15
5 7 9 8 3 2 2 3 4 6 7 5 5 2 5 4 4 3 2 2 2 2 2 3 3 2 4 3 2 2 2 3 6 9 5 6 6 5 2 2 6 7 11 13 11 12 17 21 22 22 20 20 19 19 19 21 21 21 20 18 18 19 18 16 16 15 15 15 14 12 12 13 14 14 15 14 14 14 15 14 14 16 16 17 18 18 18 20 19 19 20 18 16 15 15 14 16
9 7 6 7 3 0 2 4 5 7 7 7 6 0 4 4 4 3 1 4 2 2 2 3 5 4 5 3 3 2 2 2 2 7 6 4 5 4 1 3 5 6 10 11 11 13 17 19 21 23 20 20 19 18 19 19 20 20 20 18 18 18 18 18 17 16 16 15 15 15 13 13 14 15 16 14 14 15 15 14 15 16 17 19 19 20 19 20 20 21 20 18 17 17 16 15 18
10 5 5 4 3 1 4 6 7 6 7 9 8 0 2 2 3 3 4 5 2 2 2 3 5 4 4 4 3 3 12 9 4 5 6 3 3 3 1 4 5 5 9 9 11 12 16 17 19 23 20 20 19 17 18 18 19 19 19 19 18 18 18 19 18 18 17 16 16 16 14 14 15 16 17 15 14 15 15 15 16 17 20 21 20 19 19 21 22 22 21 19 17 17 16 17 20
10 4 2 3 3 3 5 7 7 7 7 9 9 2 4 3 1 2 4 4 3 3 4 5 6 6 4 4 4 7 16 13 8 6 6 4 2 2 3 5 4 6 8 8 13 13 14 16 19 22 21 20 19 17 17 17 18 19 20 20 20 19 19 19 18 19 18 17 16 17 16 16 15 16 18 16 15 15 15 16 17 19 20 21 20 20 23 25 24 23 21 19 17 16 16 19 20
9 4 1 3 5 4 6 7 8 8 9 10 9 4 5 6 4 4 6 7 6 4 6 5 3 4 3 4 6 3 9 8 8 6 5 4 3 2 4 5 4 7 9 8 11 11 13 16 19 22 22 22 20 18 16 17 18 18 20 22 23 21 21 20 19 18 18 17 16 17 17 17 16 17 18 16 15 16 16 17 19 20 20 22 22 23 28 28 24 22 21 19 18 16 16 19 20
6 4 2 3 5 6 7 6 7 9 11 10 9 8 8 7 5 7 7 7 8 6 7 4 1 4 4 4 5 1 5 7 7 8 6 4 4 2 4 5 4 7 8 7 8 10 13 16 19 22 22 21 20 18 17 17 17 17 20 23 24 23 22 21 20 18 18 18 17 17 17 17 18 18 18 16 16 16 16 18 21 22 21 22 23 26 30 28 24 21 21 20 18 16 15 18 19
4 3 1 3 5 7 7 7 7 9 11 9 8 9 8 6 7 10 7 6 9 7 7 4 4 7 7 6 2 2 5 7 7 8 6 4 5 4 4 3 4 6 6 7 8 10 12 15 18 21 22 21 20 18 17 17 15 16 18 21 23 23 22 21 20 19 18 18 16 16 17 17 19 19 17 16 17 17 17 18 20 22 22 23 25 28 28 26 23 21 20 20 18 17 16 18 19
4 3 2 4 5 6 7 8 8 9 9 8 7 4 1 5 9 9 6 6 6 7 6 4 5 6 5 4 0 5 6 7 7 6 6 6 6 6 5 3 3 4 5 8 8 9 10 13 18 21 23 22 21 20 17 16 15 15 17 19 21 21 21 20 20 19 18 17 16 16 16 17 19 18 16 16 16 16 18 19 18 21 24 25 26 28 27 26 23 21 20 20 19 17 17 18 18
4 3 3 5 5 7 8 7 8 9 7 7 7 3 4 6 8 5 4 5 5 6 7 7 8 6 5 2 3 6 5 6 5 5 7 8 5 6 6 4 4 3 5 8 8 9 9 11 18 22 22 22 21 21 18 18 16 15 16 17 18 19 18 18 18 18 17 16 15 15 16 17 18 17 17 16 16 17 19 20 17 20 25 26 27 26 24 24 22 21 21 21 19 18 19 19 17
4 3 4 5 5 7 8 7 7 8 6 7 7 2 3 3 5 5 5 7 8 8 4 4 6 5 5 3 3 4 4 5 5 6 8 7 6 6 6 5 7 6 5 8 9 10 9 11 18 22 22 21 22 21 20 20 18 16 16 17 17 17 17 16 17 17 16 15 15 15 16 17 17 17 17 17 16 17 19 20 18 20 25 28 28 24 22 21 20 22 22 20 19 18 19 19 16
4 3 4 5 6 7 6 6 8 8 6 8 6 3 2 2 3 5 7 8 9 7 1 3 4 3 3 3 1 3 6 8 5 5 7 7 6 5 4 5 9 10 7 8 10 10 10 11 16 21 23 24 23 22 21 20 19 19 17 17 17 17 16 16 17 17 17 16 16 16 16 17 17 17 17 17 16 17 18 18 18 21 27 28 26 23 21 21 21 21 21 19 19 20 20 18 15
3 3 4 5 7 7 6 6 8 7 6 8 2 2 4 5 4 5 8 9 7 6 2 1 3 3 4 5 2 9 10 8 7 6 7 7 6 4 2 2 8 11 10 10 11 11 12 13 13 18 23 25 24 22 21 21 20 20 19 18 18 17 17 18 18 19 18 17 17 17 17 18 18 17 17 17 17 17 18 18 20 25 28 26 25 24 22 23 22 21 19 18 19 20 20 17 15
2 3 4 6 7 7 7 7 7 7 7 9 3 3 7 8 6 6 9 8 5 7 7 6 5 4 6 6 2 12 12 10 9 7 7 8 6 5 4 4 7 10 12 13 14 13 13 15 14 16 20 22 24 23 23 22 22 22 21 20 19 19 19 20 20 20 20 19 19 19 20 20 19 18 17 16 17 17 17 19 25 29 28 26 25 25 23 22 21 18 15 16 19 19 17 15 13
3 3 6 7 7 7 8 9 9 8 8 10 7 6 11 11 9 6 7 6 5 9 9 9 9 8 9 8 6 7 8 8 8 7 8 9 8 8 8 8 9 10 13 15 18 17 15 17 17 16 18 20 21 22 23 22 23 22 22 22 21 21 21 22 22 22 21 20 21 21 21 20 20 19 17 17 17 17 19 24 28 28 27 26 23 22 22 19 18 16 13 14 17 17 15 13 12
5 4 6 8 8 9 10 11 11 7 5 10 13 13 14 13 11 7 8 8 7 9 8 7 9 10 9 11 13 12 10 9 8 9 10 10 10 10 10 12 13 12 14 16 19 20 18 18 19 19 19 20 20 22 23 21 21 21 22 23 22 23 23 23 23 23 21 21 22 23 23 21 21 20 18 18 18 20 25 27 27 26 26 25 22 21 20 19 18 15 13 15 16 15 13 12 11
6 5 6 8 10 11 12 12 11 10 7 8 13 15 13 12 11 9 10 12 10 9 7 8 10 10 9 8 7 12 11 10 11 11 11 11 12 12 12 14 15 16 17 18 19 20 21 19 19 20 21 21 20 21 22 21 21 20 21 22 22 23 24 24 23 22 21 21 23 25 26 24 23 20 19 20 21 25 29 27 26 27 26 24 24 22 20 19 17 13 12 12 12 11 10 10 11
4 5 7 9 10 12 13 12 8 11 9 6 10 15 14 11 11 12 12 13 11 8 8 9 11 10 9 9 2 12 11 10 12 12 11 12 13 13 13 14 15 17 18 18 19 20 22 22 21 20 21 22 21 20 20 20 21 20 19 21 20 21 23 23 22 20 19 20 24 27 27 27 25 22 22 24 26 30 31 27 26 28 27 26 26 25 21 18 15 13 13 11 11 10 8 8 9
4 6 10 12 12 13 12 8 7 9 11 9 10 14 13 9 9 13 14 12 10 7 8 9 10 9 9 10 5 6 8 9 11 13 13 13 13 14 14 15 15 15 17 19 20 21 22 23 24 23 22 23 22 21 20 19 20 19 19 20 19 18 20 22 22 20 19 21 24 27 28 28 26 25 26 28 30 31 31 28 27 27 27 27 27 25 21 18 14 12 12 11 12 11 8 6 7
3 7 9 12 12 13 11 8 7 9 11 12 11 11 13 12 11 11 13 14 11 9 10 12 11 12 13 12 10 9 7 7 8 9 12 14 14 16 15 16 16 16 18 20 21 21 22 23 24 24 23 23 22 22 20 18 20 20 20 21 20 19 19 21 21 19 20 22 25 27 29 29 27 28 29 30 31 31 31 30 28 28 27 28 27 24 21 17 13 13 13 13 14 12 9 6 8
3 6 9 12 11 14 12 7 7 7 9 11 10 12 12 13 12 9 13 15 12 11 12 13 14 15 16 14 11 11 11 10 11 14 15 13 14 16 17 17 17 17 19 20 21 22 23 24 24 24 24 24 23 23 22 20 21 21 20 20 20 21 20 21 22 21 21 23 26 27 27 27 28 29 31 30 31 31 30 29 29 29 28 29 27 24 21 16 14 15 16 16 14 12 9 8 9
7 9 10 11 9 10 7 4 6 6 8 9 9 12 12 12 11 10 18 19 14 14 15 16 17 17 16 15 13 11 10 11 13 17 19 16 15 15 16 17 16 18 20 20 20 21 22 22 23 23 24 24 24 24 24 22 22 22 22 21 21 20 19 22 23 22 24 25 27 28 26 26 28 30 31 32 32 31 30 29 29 30 30 29 28 25 20 16 17 19 18 17 15 13 10 9 11
7 10 10 9 10 10 7 7 10 8 7 7 10 15 14 13 12 14 22 20 17 19 20 19 18 17 15 13 13 12 10 10 11 13 15 16 16 16 14 12 11 12 15 18 19 19 19 19 20 22 23 24 24 24 24 23 22 21 22 22 21 19 18 22 24 25 26 27 29 30 28 27 28 31 33 34 33 32 31 30 30 30 31 30 28 26 21 18 19 20 19 17 15 13 11 10 12
9 13 11 11 14 13 11 13 14 12 11 11 12 15 14 13 11 12 15 14 17 20 20 19 16 13 11 11 11 9 8 9 12 13 12 11 10 8 5 3 5 8 8 11 15 16 17 17 18 20 21 23 23 23 25 24 22 20 21 21 20 18 17 20 24 26 27 28 31 32 31 30 31 32 33 33 34 33 32 32 31 31 31 31 29 26 23 21 20 20 19 17 16 13 11 10 12
10 12 11 12 15 14 13 16 16 13 12 13 15 17 15 12 12 12 12 13 16 17 16 15 12 9 9 11 7 5 7 9 11 9 5 3 4 4 3 2 4 7 9 9 10 11 13 15 17 18 20 21 22 22 24 24 22 20 19 20 20 19 18 20 24 27 28 29 33 34 33 33 33 33 33 33 34 34 32 33 33 32 32 31 28 25 23 23 22 20 19 17 15 13 11 11 13
9 10 11 13 14 14 14 15 16 14 11 12 14 15 15 12 12 14 14 15 17 16 15 13 12 11 9 6 4 5 5 3 4 7 10 10 11 11 10 10 9 7 7 8 9 11 11 13 15 17 19 20 22 21 22 24 24 21 19 20 21 20 19 21 24 26 28 32 35 35 33 32 32 33 34 34 34 33 33 34 34 34 32 30 27 25 24 24 22 21 19 17 16 14 12 13 14
9 10 10 11 12 11 11 12 13 14 12 11 11 11 11 9 9 12 10 8 10 11 9 9 10 8 4 3 3 3 2 4 8 15 19 19 19 20 19 19 17 16 13 10 7 8 11 11 11 14 16 18 20 20 20 22 24 23 19 18 20 20 19 22 24 24 27 33 35 34 33 33 33 34 34 34 35 34 33 33 34 33 32 29 28 26 25 24 22 21 20 18 16 15 14 14 16
9 10 8 7 8 7 9 11 12 13 10 8 9 9 9 8 10 9 4 4 6 8 8 7 7 4 3 3 3 3 2 7 16 20 21 21 21 21 21 20 18 17 16 14 13 10 9 11 11 11 14 17 18 19 18 18 20 22 20 18 19 19 20 23 25 25 28 32 33 33 34 34 34 34 34 35 37 35 33 34 33 32 31 29 28 26 25 24 23 22 21 19 17 15 15 16 17
6 8 6 6 7 8 10 11 12 13 7 6 7 8 8 9 9 7 4 2 2 5 8 7 7 6 6 5 4 4 1 12 20 20 20 21 22 22 21 20 20 18 17 15 15 13 11 11 12 13 13 14 17 19 18 16 16 17 17 19 20 19 19 23 27 27 28 31 33 34 35 35 35 35 35 36 37 36 34 34 33 32 30 28 27 26 25 24 23 22 21 20 18 17 16 17 18
5 6 6 6 7 8 8 8 9 9 3 4 7 7 7 7 7 9 10 9 6 6 8 9 9 8 7 7 6 4 4 11 14 16 20 20 20 21 19 18 18 16 15 15 14 14 13 11 12 14 15 14 15 17 19 19 18 15 12 16 21 21 18 20 26 27 28 31 34 35 36 36 35 34 33 33 33 34 34 34 33 31 29 27 26 25 25 25 24 22 20 19 18 18 18 18 18
4 6 6 7 9 9 8 7 8 8 4 6 8 8 9 9 9 11 13 13 12 12 12 11 10 9 10 7 1 4 8 9 8 13 18 18 19 19 17 16 16 15 14 14 14 14 14 13 12 12 15 15 15 16 18 19 19 17 13 12 16 19 19 20 24 27 29 31 34 34 34 34 33 32 32 30 29 29 30 32 32 30 27 25 25 25 25 24 23 21 20 18 17 17 18 19 19
5 6 6 7 9 9 10 9 7 10 9 7 9 11 13 13 12 13 14 13 12 13 13 11 11 10 6 2 7 8 9 9 8 12 16 17 18 18 17 16 16 16 15 15 15 14 12 12 12 11 13 15 14 16 17 16 15 16 16 15 12 13 16 19 21 25 29 31 31 31 31 32 32 31 32 31 29 27 28 29 29 27 26 25 25 25 24 23 22 21 20 18 15 14 16 17 18
11 10 9 9 9 9 11 11 8 10 11 10 12 14 15 15 13 13 14 12 11 13 12 11 10 5 4 8 8 8 9 8 9 14 17 17 18 19 18 18 18 17 17 17 17 16 14 11 10 10 10 13 13 13 16 15 13 13 15 15 12 9 12 16 20 21 24 28 28 29 29 30 31 31 31 31 30 29 29 29 28 26 25 24 25 26 25 24 23 22 20 19 17 14 13 16 17
12 10 9 10 10 10 11 12 10 8 9 10 13 15 16 15 13 12 13 13 14 14 13 10 3 5 8 8 7 8 8 7 10 14 17 17 19 19 19 19 20 20 19 19 19 18 17 13 10 9 6 9 13 12 13 13 13 14 13 10 7 9 11 14 17 18 20 23 25 25 26 27 29 30 30 30 31 31 30 29 27 26 24 24 25 26 26 24 23 22 21 20 20 17 16 16 17
10 8 8 8 8 10 11 13 11 9 8 9 11 15 15 14 13 12 12 13 12 7 5 2 7 9 6 7 8 7 6 6 9 12 15 18 19 20 21 21 21 20 20 20 20 20 18 14 11 8 5 6 9 11 12 11 11 13 12 8 6 8 10 12 14 15 16 19 21 22 23 25 28 29 30 31 32 31 30 28 27 25 24 24 24 23 23 23 23 22 22 21 20 19 18 18 19
7 6 6 7 7 9 11 11 11 9 7 7 10 13 13 13 13 12 13 14 5 4 7 6 7 7 6 7 6 6 6 6 8 10 14 18 19 20 20 20 19 18 18 20 22 21 20 19 17 11 9 7 1 7 10 10 10 11 9 7 7 7 9 12 13 13 13 14 16 18 21 24 26 28 28 28 29 30 29 27 26 25 24 24 23 22 22 22 23 23 23 23 20 18 16 16 20
6 6 6 7 6 7 8 7 9 9 7 8 11 12 11 12 12 12 12 7 4 9 8 8 7 7 8 7 6 7 7 7 8 9 11 14 17 18 18 18 18 18 19 21 22 22 22 23 22 19 17 15 11 6 6 9 11 10 8 6 5 3 7 11 12 11 11 11 12 14 17 20 22 24 25 25 25 27 28 27 25 24 23 23 24 24 23 22 23 23 23 24 22 20 16 15 17
7 8 8 8 8 10 10 9 10 10 8 10 11 11 9 8 11 9 3 4 8 8 7 8 7 7 7 7 7 7 7 7 7 8 8 10 13 15 17 18 18 18 20 20 21 22 22 22 23 23 22 20 17 13 7 7 10 10 9 7 4 2 6 8 10 10 10 10 10 11 13 15 16 18 20 21 21 22 24 24 23 22 23 23 23 22 22 21 22 22 22 23 23 22 20 18 18
7 9 10 12 12 12 12 10 8 6 7 6 5 8 7 4 8 7 3 6 6 6 7 7 6 6 6 6 7 6 7 6 6 7 7 8 11 14 16 17 18 18 20 20 20 21 22 23 23 24 23 22 21 17 11 6 7 9 9 6 4 2 5 6 7 8 8 8 9 9 10 11 12 13 14 16 16 16 17 18 19 20 21 21 21 21 20 20 20 20 20 20 20 20 19 19 19
6 6 6 8 10 9 9 8 5 5 8 5 3 6 8 5 7 8 4 7 6 6 6 6 6 5 5 5 5 5 6 6 5 6 7 8 11 13 14 16 18 18 19 20 20 21 22 23 23 24 24 24 23 19 15 12 10 7 6 6 4 1 3 3 2 2 4 5 5 6 7 8 10 10 11 13 14 14 14 15 16 17 18 18 19 19 19 18 18 18 18 17 18 17 17 17 17
6 5 3 3 5 7 8 7 6 5 8 9 7 8 9 9 9 9 7 7 8 6 6 6 5 5 6 5 6 6 6 5 5 5 6 8 10 12 14 16 17 18 19 20 20 21 21 23 23 23 24 24 23 21 19 18 18 15 11 9 8 6 7 8 6 4 3 2 1 1 2 4 6 7 9 10 11 12 12 13 13 13 14 15 15 15 15 15 15 15 14 15 16 16 17 17 17
5 3 2 1 2 6 6 5 7 5 7 11 9 6 8 10 8 6 8 8 8 8 7 7 6 6 6 5 6 6 6 5 5 6 6 8 11 13 14 16 17 18 20 20 20 21 21 22 24 23 24 25 23 22 22 22 23 22 20 18 16 14 13 12 10 10 9 6 6 6 4 2 1 2 4 5 6 7 8 9 10 10 10 11 11 11 12 12 12 12 12 13 15 16 16 16 16
2 3 2 2 2 5 4 4 7 5 8 13 9 5 7 10 8 4 6 8 8 7 6 6 6 6 6 6 6 5 5 5 5 6 7 9 12 14 15 16 18 19 20 20 20 21 22 22 24 25 25 24 24 23 23 23 24 24 24 23 21 19 17 15 15 14 13 12 12 12 11 11 9 6 4 2 0 2 5 7 8 8 7 8 9 10 10 10 10 9 9 11 13 15 16 15 14
3 2 3 5 4 5 5 6 5 4 10 13 9 8 8 9 7 4 4 4 8 9 6 6 7 6 6 5 5 5 5 5 5 5 7 11 13 15 16 17 18 19 20 21 21 22 23 23 24 26 25 25 25 24 24 25 25 25 25 25 24 23 20 19 18 16 14 13 13 12 12 13 14 13 11 10 8 4 3 6 6 7 7 7 8 9 9 8 8 8 8 9 12 14 15 15 15
1 1 2 4 4 5 5 6 6 7 10 7 6 9 11 10 6 3 2 0 7 9 8 10 9 8 7 5 5 5 5 5 5 5 6 9 11 14 16 17 18 20 21 22 22 21 23 24 24 26 26 26 26 25 26 26 25 25 25 25 25 25 24 23 23 21 19 18 17 15 13 13 14 14 12 11 11 7 2 1 2 4 5 5 6 7 8 8 9 9 10 11 12 14 15 16 17
3 3 3 3 4 4 5 6 6 8 9 6 6 9 10 9 3 4 5 3 5 5 7 10 10 9 7 6 6 5 5 6 6 5 6 6 8 11 14 16 17 19 20 21 21 21 22 23 24 26 27 26 26 27 28 28 28 27 26 25 25 24 25 25 25 24 23 22 22 22 20 19 19 18 15 12 11 9 8 7 4 1 3 4 5 6 7 8 9 10 10 10 12 13 14 15 17
6 5 4 5 4 5 7 6 5 7 8 6 5 3 4 5 1 5 7 6 6 6 7 8 9 9 8 7 6 6 6 6 6 6 6 5 7 11 13 14 16 18 19 20 21 21 22 23 24 25 26 26 26 27 28 30 30 29 28 27 27 26 26 26 26 25 24 23 23 23 22 21 20 20 19 16 13 11 11 10 7 4 2 2 3 5 6 7 8 8 9 10 10 11 13 14 16
7 6 5 6 5 5 6 5 5 5 5 4 2 2 2 3 1 4 7 7 7 7 8 8 8 8 7 7 6 6 6 6 6 6 6 7 10 12 13 14 15 17 18 19 20 21 21 23 24 25 26 26 27 27 27 29 29 29 29 29 28 27 26 27 26 26 25 24 24 23 22 21 20 20 19 17 15 13 13 10 7 6 5 3 1 3 5 5 6 7 7 8 9 10 11 13 14
4 5 6 7 5 5 5 5 6 5 6 6 3 3 3 2 2 4 7 6 6 7 7 8 7 7 7 6 6 6 6 5 5 5 6 8 11 13 13 14 15 16 18 19 20 21 21 22 23 24 25 26 27 27 27 27 27 28 29 28 28 27 27 27 27 26 26 25 25 24 23 22 21 19 17 16 15 14 15 14 11 9 8 6 3 1 3 4 5 6 7 7 7 8 10 11 11
1 3 5 4 1 3 5 6 6 5 8 8 5 6 3 2 1 4 6 6 7 7 7 8 8 8 7 6 6 6 6 6 5 6 6 7 11 12 13 14 15 16 17 18 19 20 21 22 23 24 25 26 27 27 27 26 27 29 30 29 28 28 28 27 26 26 26 25 25 25 24 22 21 21 19 17 16 14 14 15 15 14 12 11 7 4 1 2 3 5 6 7 8 8 8 9 10
2 2 2 1 0 1 2 4 4 5 8 7 5 9 6 2 2 4 7 7 8 9 8 9 8 8 7 6 7 7 7 7 6 7 7 8 10 11 12 14 15 16 17 18 18 19 20 21 22 23 25 25 25 26 27 27 28 29 30 30 29 29 29 27 27 27 26 26 26 26 25 24 23 22 21 19 18 16 14 14 13 13 12 10 9 7 5 2 1 3 4 6 8 9 9 9 8
6 4 1 1 2 2 2 3 3 5 8 7 7 10 8 6 3 6 10 11 11 10 9 10 10 9 8 7 8 8 8 7 6 6 6 7 10 11 12 14 14 15 16 17 17 18 20 20 21 22 23 23 23 24 26 27 28 28 29 30 30 30 29 28 28 28 27 27 27 25 25 25 24 23 22 22 21 20 18 16 15 13 11 9 8 7 6 5 4 2 2 3 5 7 9 10 9
7 4 1 2 4 4 3 3 3 4 6 6 7 8 6 3 1 6 12 12 12 12 10 10 10 9 8 8 8 7 7 6 6 6 5 7 10 11 13 14 14 15 15 16 17 18 19 20 20 21 21 22 23 23 24 25 25 26 28 28 29 29 29 29 29 29 30 29 27 26 25 24 24 24 23 23 22 22 20 19 17 16 14 13 11 9 8 6 6 5 5 4 4 5 6 8 9
5 4 4 5 4 3 5 6 4 4 6 5 5 7 5 1 4 3 7 11 12 12 11 9 9 9 9 8 8 7 7 7 6 6 6 7 10 12 13 14 14 15 15 16 17 17 18 19 19 20 20 21 22 22 22 22 23 24 26 26 26 27 28 29 29 29 29 29 28 26 25 24 23 23 23 23 22 22 21 19 19 18 17 15 14 14 12 9 8 6 5 5 5 5 6 6 7
5 5 6 6 6 5 6 8 6 4 6 6 5 8 5 1 4 4 4 8 9 10 10 9 9 10 9 8 8 7 7 7 7 6 6 7 10 12 13 14 14 15 15 15 16 17 18 18 19 19 19 20 20 21 21 21 22 23 24 24 24 24 26 28 28 28 28 28 28 27 25 25 25 24 23 23 22 22 20 20 19 19 18 17 16 15 14 13 12 10 8 7 6 5 5 5 5
Wind_Direction
231 231 237 244 246 256 246 217 248 227 230 250 245 252 248 243 250 252 255 277 284 318 11 54 32 50 56 330 336 325 330 290 275 266 248 177 181 168 178 183 159 161 158 183 188 182 185 179 176 174 178 181 180 183 180 179 180 176 173 171 172 175 174 178 181 178 178 178 181 182 191 196 195 196 192 193 190 185 181 182 181 174 173 173 168 160 160 156 148 142 134 129 129 128 124 119 116
224 242 244 248 242 247 238 180 236 232 218 247 246 244 250 249 245 249 245 262 312 331 360 15 360 14 32 332 324 314 299 262 247 235 103 138 142 135 161 151 143 163 162 180 183 180 186 182 178 177 180 183 183 184 182 180 177 171 170 172 175 181 181 184 184 183 185 182 184 184 188 194 196 198 196 197 195 191 183 184 184 176 178 176 169 163 161 154 146 143 134 129 129 129 127 121 118
240 254 226 229 233 240 274 197 225 245 236 248 247 240 250 259 249 278 68 96 342 338 58 4 276 311 258 234 245 259 243 231 228 171 105 136 127 114 143 130 131 165 168 169 169 179 187 184 180 182 183 185 186 185 183 179 174 172 175 179 182 186 187 188 184 184 189 187 189 188 188 194 200 200 198 199 196 195 188 189 187 181 183 176 171 167 162 154 146 142 133 129 131 128 126 121 118
247 257 226 230 217 211 270 226 225 247 249 256 258 265 338 348 59 56 42 56 13 344 356 321 278 262 246 244 271 278 255 246 54 37 108 126 87 118 152 139 134 166 174 164 163 176 186 186 183 185 186 187 186 185 183 179 178 179 183 186 188 188 185 187 186 187 190 191 196 196 195 195 201 202 199 199 197 196 191 193 192 187 185 176 173 169 161 154 147 143 135 131 133 128 125 122 118
235 252 248 265 247 196 252 234 233 236 242 260 264 354 52 66 90 87 11 302 276 279 302 291 285 262 243 252 292 279 273 303 39 31 71 107 77 114 187 150 135 172 178 169 169 174 186 190 188 188 190 189 185 184 182 181 183 186 189 189 193 191 185 188 190 192 193 194 196 199 204 201 202 203 200 199 199 196 192 196 195 190 185 176 172 168 159 152 148 143 136 135 136 130 126 122 119
229 228 235 272 279 286 262 238 237 238 239 249 256 84 70 83 116 132 234 258 246 253 261 261 281 280 273 286 260 230 46 333 37 29 50 86 76 113 207 126 139 189 180 171 168 172 189 194 191 190 191 189 186 186 185 185 189 193 195 194 194 191 190 193 192 195 196 198 199 198 203 207 207 205 201 200 201 198 195 199 197 191 185 178 175 170 161 152 146 141 139 141 140 132 129 125 123
241 224 192 248 276 244 251 248 245 250 246 251 271 331 99 70 113 162 214 234 223 253 256 233 269 276 280 308 288 52 54 55 78 46 53 45 55 107 99 122 141 181 172 167 165 177 195 193 190 190 188 189 191 192 192 193 197 201 204 202 196 193 196 199 197 197 197 200 203 201 202 208 211 208 202 200 203 200 200 203 196 192 187 180 176 167 158 151 146 146 145 141 137 132 129 128 127
256 267 180 210 234 217 232 251 253 259 264 271 291 326 113 101 86 247 235 235 225 256 272 229 240 252 251 291 275 72 59 64 90 82 74 58 58 75 75 122 146 164 167 165 168 180 195 192 189 191 190 191 195 197 202 206 208 210 211 208 204 202 204 205 203 201 200 201 205 205 206 209 211 207 201 200 202 203 206 207 197 195 191 180 175 166 156 152 152 154 146 135 134 131 130 131 129
245 243 215 227 241 241 235 246 253 256 262 268 274 245 162 170 204 259 266 263 248 240 265 247 201 245 258 291 272 92 76 81 96 87 76 79 104 97 97 131 152 156 165 168 178 184 184 188 189 192 194 197 199 201 209 215 216 214 214 213 212 212 211 211 209 206 205 205 207 207 210 211 208 203 201 201 203 206 210 206 198 196 190 181 176 167 159 156 156 152 140 133 134 132 131 133 131
227 219 232 247 246 255 249 247 252 256 256 252 250 240 225 223 228 245 255 265 268 251 247 258 175 241 265 269 274 45 101 105 100 82 70 86 112 110 115 143 167 162 169 167 189 199 186 189 192 193 196 199 201 204 210 218 221 215 214 216 215 215 215 215 213 212 211 209 209 209 211 210 203 200 202 206 207 208 212 205 199 196 188 183 175 160 157 158 155 146 138 135 134 132 133 134 134
220 213 241 254 244 252 256 256 252 254 259 256 249 236 226 243 263 258 252 247 263 266 249 248 246 254 264 262 258 99 107 103 101 90 83 95 106 112 110 133 176 174 191 187 189 204 198 195 195 195 196 198 200 203 210 219 221 215 214 213 213 214 215 217 217 217 215 210 209 210 211 207 201 200 204 210 210 209 212 204 201 200 191 186 175 161 159 158 153 147 141 136 134 133 135 138 137
232 215 227 248 243 247 252 261 266 271 278 288 286 274 247 259 259 258 260 253 259 274 274 263 267 268 259 276 93 127 111 87 80 77 88 99 108 130 127 113 169 179 202 203 197 200 202 199 197 197 197 197 199 202 208 217 220 217 214 210 211 214 218 220 221 223 218 211 208 208 209 205 202 204 207 211 212 211 209 201 198 194 184 176 166 159 160 156 152 150 143 138 137 138 142 141 138
239 230 235 244 248 259 263 269 277 283 287 290 289 360 32 285 269 275 273 261 257 262 271 260 260 264 247 260 117 122 94 80 84 75 83 101 118 130 131 133 167 190 204 200 196 196 200 200 197 198 200 198 200 203 207 215 218 219 217 214 216 217 220 222 224 224 215 209 208 206 204 204 205 208 211 211 214 213 208 203 195 186 179 167 157 154 154 150 149 146 140 138 137 140 145 140 137
237 232 243 249 253 262 271 278 277 279 277 275 285 32 69 284 287 304 293 272 253 244 277 285 265 269 257 238 128 108 108 127 122 94 88 111 124 123 147 178 177 174 199 204 194 196 204 202 199 201 204 203 204 205 209 215 216 218 220 218 221 221 222 223 224 218 210 210 210 206 202 203 208 211 213 212 215 213 208 203 193 186 178 165 160 160 154 147 144 139 136 138 135 139 142 139 138
238 245 249 250 253 254 262 269 272 273 271 269 283 354 316 261 268 282 281 278 271 255 3 7 280 290 282 256 175 124 146 147 129 100 98 120 127 135 176 214 195 174 179 199 200 203 208 202 199 206 207 206 210 211 213 218 218 219 221 222 223 223 224 223 222 217 213 214 212 209 206 208 212 214 214 212 215 213 206 200 192 186 176 164 160 161 158 151 145 140 138 136 136 142 143 140 141
240 266 255 250 251 248 248 248 262 266 266 268 263 45 279 255 244 259 254 248 263 272 267 220 236 238 262 274 185 141 149 144 132 116 109 126 130 144 171 203 194 186 185 188 199 208 214 209 201 208 210 210 213 216 219 221 224 222 222 227 228 225 225 223 221 220 220 220 216 213 211 213 216 217 217 214 215 212 206 198 186 175 167 160 156 154 154 152 150 147 145 143 144 147 146 144 145
243 256 249 248 249 244 248 242 251 257 264 270 222 172 255 264 251 250 254 235 237 273 279 282 265 232 239 265 156 138 149 147 139 131 127 140 145 157 162 164 178 194 200 195 198 203 215 217 210 211 213 215 216 218 222 225 228 225 223 229 229 227 226 224 224 223 224 223 218 215 215 216 216 215 215 214 211 206 201 190 175 166 161 157 155 153 151 150 153 154 151 151 149 146 145 146 149
226 236 240 240 245 242 244 242 248 263 288 297 294 264 266 274 267 254 259 231 214 246 251 256 256 249 239 234 219 193 189 167 145 143 153 162 166 175 178 184 190 195 203 203 204 204 210 218 218 220 220 218 216 218 222 228 230 224 222 227 227 226 226 227 227 227 227 225 222 218 216 217 216 212 208 206 204 194 182 172 165 162 160 156 155 156 154 152 156 157 144 139 140 142 148 151 156
220 229 243 242 247 250 252 255 263 273 280 289 293 284 272 269 268 278 282 257 239 254 258 257 256 257 249 226 210 201 194 174 162 172 178 180 179 187 186 188 196 197 199 203 206 206 208 214 217 220 224 222 218 220 222 227 231 224 221 225 226 225 226 227 228 229 228 227 226 220 214 214 214 207 201 198 192 182 172 166 162 162 161 157 154 154 156 157 161 160 140 134 137 140 148 156 166
227 231 245 245 252 260 265 269 286 296 279 281 293 287 282 290 291 286 286 280 269 264 270 276 272 267 270 263 188 158 165 167 172 188 195 196 196 203 198 190 195 200 203 202 203 205 205 210 217 219 222 224 222 222 220 222 230 228 223 224 226 225 227 228 228 230 229 228 224 218 212 210 208 200 192 188 181 174 169 166 164 163 163 160 157 155 158 162 165 163 150 154 157 148 146 155 174
227 228 244 252 260 264 269 277 302 308 306 319 303 289 285 300 304 285 279 283 276 259 253 259 266 271 280 294 156 149 168 174 181 196 205 206 207 212 212 205 202 204 205 203 203 203 204 207 213 219 222 225 223 223 219 215 220 224 222 222 222 223 227 228 228 228 228 226 217 212 211 204 199 192 183 179 174 172 170 169 166 165 164 163 163 163 165 168 169 169 164 172 179 171 157 151 170
261 253 257 262 268 267 276 311 349 332 324 316 287 287 292 286 276 277 277 271 271 280 285 280 282 295 294 294 283 194 183 181 189 194 202 210 214 217 218 215 210 206 200 200 204 206 208 207 209 214 219 224 224 224 222 216 217 217 216 217 216 218 224 225 226 224 223 222 212 207 204 194 188 182 177 175 173 172 172 172 170 169 167 166 170 172 171 172 171 177 181 184 187 184 172 156 168
274 269 273 278 282 283 294 321 325 330 330 317 304 313 321 306 278 275 281 274 279 304 309 305 299 296 290 286 288 275 255 239 231 219 210 207 213 217 218 216 209 205 200 200 206 208 209 209 209 210 213 220 223 224 223 220 220 215 213 217 217 219 221 220 221 222 219 217 212 204 194 186 181 177 176 175 174 174 174 175 175 174 173 173 177 180 178 178 180 188 194 195 193 186 174 167 175
229 263 274 282 284 287 296 303 293 308 306 295 303 314 314 303 297 302 292 282 290 302 297 295 290 286 286 279 270 266 265 266 272 273 259 237 230 225 220 220 213 207 204 206 210 210 212 211 210 211 210 214 218 222 223 224 222 214 213 217 218 220 221 218 220 221 215 212 211 200 187 183 180 176 178 178 176 176 176 177 179 178 178 178 183 186 183 186 193 196 197 195 191 184 177 176 181
231 255 266 272 265 263 269 268 265 268 276 264 251 265 265 265 278 285 274 272 281 283 275 273 273 272 271 268 264 257 253 257 260 264 263 253 248 244 231 224 218 208 202 206 213 214 215 214 213 214 212 213 215 217 219 224 224 215 212 215 217 222 223 220 220 219 211 208 208 199 189 187 183 180 182 181 179 179 182 183 183 183 183 184 186 189 192 199 200 197 195 191 188 185 183 183 186
253 271 282 289 281 274 271 272 265 246 246 232 221 239 244 248 256 258 257 261 267 263 260 259 259 260 261 263 262 257 250 251 257 255 255 249 242 243 234 226 231 224 209 206 212 216 217 217 216 216 214 213 213 213 214 220 225 218 213 216 219 223 224 220 218 215 208 205 204 199 197 195 189 186 184 182 182 185 187 186 186 186 188 190 191 193 198 205 201 196 194 191 190 191 191 194 191
279 282 297 301 293 289 285 281 274 264 255 241 232 238 239 238 242 250 252 255 256 251 253 253 249 253 262 260 255 262 265 262 273 272 262 256 248 238 208 199 268 277 256 221 211 214 217 219 220 219 215 213 213 213 213 218 224 221 215 216 219 220 220 218 216 212 208 206 204 200 198 196 193 191 189 187 188 190 190 188 188 188 190 191 193 196 199 201 199 197 198 197 196 195 197 194 187
295 288 296 290 285 280 273 273 269 266 261 249 247 248 244 239 238 249 254 250 249 250 255 254 248 245 246 252 254 278 279 270 279 286 283 305 351 18 71 48 291 277 276 260 237 229 223 221 222 222 219 216 216 214 212 216 222 222 217 215 217 217 215 215 214 211 209 206 203 199 195 193 195 196 195 192 193 193 191 190 190 191 192 192 195 199 199 197 195 195 197 196 193 195 192 181 180
302 293 288 276 276 273 267 267 264 262 259 251 257 258 251 244 245 255 256 251 249 252 256 253 246 235 230 251 271 266 273 307 5 28 31 24 23 29 32 24 15 351 313 287 266 257 249 235 223 224 223 220 220 217 213 217 219 219 219 217 217 216 213 212 212 211 211 206 201 198 197 198 199 200 198 195 195 195 192 191 192 192 194 196 199 201 199 196 194 192 192 190 189 192 189 181 181
289 279 275 276 276 269 264 265 266 269 261 244 249 263 259 251 266 278 285 285 272 267 261 261 259 246 246 287 283 279 321 17 42 44 37 32 30 30 29 24 21 14 4 353 329 292 273 260 237 226 224 221 221 220 216 214 214 216 218 217 219 220 217 214 213 212 210 206 200 199 200 201 203 203 201 197 195 195 193 193 194 194 196 200 201 200 199 198 196 194 192 190 191 193 191 187 183
277 268 260 267 271 270 269 264 267 270 266 255 254 265 272 272 284 288 312 352 325 307 293 288 291 297 316 296 283 303 355 48 51 45 36 33 29 26 22 15 10 5 358 351 345 329 293 271 256 241 229 224 221 220 219 216 215 219 223 221 219 224 225 219 213 210 210 208 203 202 202 201 202 203 202 201 198 196 196 196 196 198 200 201 200 200 201 201 200 198 197 195 193 193 193 189 184
258 263 257 249 261 277 274 259 264 272 280 297 280 270 277 282 288 281 268 290 297 297 297 295 293 293 298 293 285 271 100 61 52 40 31 30 26 22 16 9 6 360 353 342 332 327 311 278 257 250 240 227 220 218 219 220 215 216 229 232 224 222 224 221 215 210 210 213 210 208 207 203 202 202 200 200 198 195 197 198 199 202 202 200 200 199 201 202 201 199 200 202 199 192 190 187 186
242 251 259 258 264 275 278 274 278 278 268 264 261 263 274 276 281 281 283 289 280 273 279 272 268 272 269 258 258 257 81 61 47 36 30 26 23 19 14 9 5 359 353 342 329 320 312 293 264 249 242 232 221 218 217 219 215 212 229 237 228 222 216 215 217 215 213 214 214 212 209 206 205 204 202 200 196 195 198 199 201 203 202 200 200 200 200 203 203 200 198 202 204 197 189 183 181
246 250 258 264 274 283 295 307 306 301 286 246 251 262 266 263 268 272 274 279 282 284 279 267 256 250 248 244 262 61 68 58 43 36 30 25 22 17 14 12 6 1 354 345 336 320 305 295 278 255 242 234 224 216 215 217 213 213 229 238 228 223 218 215 218 221 219 217 215 214 212 210 209 209 207 205 201 197 196 198 200 201 201 201 201 199 200 202 202 202 199 196 200 199 191 184 179
273 275 281 281 284 288 291 298 311 312 302 275 272 277 275 275 274 273 272 271 274 279 278 274 267 260 262 44 64 66 65 58 45 36 32 29 22 16 14 12 7 4 359 352 349 336 315 298 283 263 243 234 228 219 212 211 207 210 231 241 230 222 223 223 221 221 220 218 216 216 216 215 215 214 210 208 205 202 198 199 201 200 201 203 202 199 200 201 199 199 199 191 189 193 193 187 182
267 269 274 282 283 279 281 285 295 304 298 283 278 278 279 281 281 282 286 288 283 281 278 273 275 287 51 67 66 64 62 56 46 38 34 30 23 18 16 12 9 8 5 1 358 352 339 318 295 279 249 230 231 220 201 198 200 205 223 234 235 237 233 230 229 223 219 218 216 215 215 216 217 215 211 207 205 204 203 203 203 202 203 205 203 200 199 201 199 196 194 190 183 178 182 186 185
273 275 273 276 278 279 283 287 290 294 287 276 275 277 279 282 285 285 286 283 278 277 275 270 297 59 69 67 60 60 62 55 45 39 34 29 25 21 17 13 11 10 9 6 360 356 349 337 318 304 269 231 233 215 188 190 197 202 209 215 223 239 239 230 226 222 217 217 216 216 217 218 217 215 212 208 206 205 205 204 203 203 205 206 204 202 201 201 200 196 190 188 187 179 175 182 187
286 289 290 285 280 282 283 283 283 280 273 273 280 284 284 283 282 278 271 270 273 284 299 345 74 76 67 61 60 56 55 49 40 35 29 26 23 21 19 15 13 10 7 5 2 359 357 354 345 324 311 280 241 205 185 189 196 199 200 198 197 217 231 225 215 209 209 214 216 217 219 218 217 214 210 208 207 205 204 204 202 202 203 203 201 199 201 200 196 194 188 184 186 185 182 185 188
279 279 282 276 273 280 276 272 275 274 270 274 278 279 280 281 279 275 272 271 276 72 75 75 80 84 75 65 64 56 51 41 32 31 26 22 21 21 19 15 13 11 7 7 8 7 5 5 3 354 355 4 73 166 172 178 186 188 181 184 193 208 229 225 214 205 201 206 212 215 217 216 215 212 208 206 206 205 205 205 203 202 203 202 200 197 199 200 195 194 192 188 183 183 186 191 195
255 251 256 260 264 275 274 273 281 281 281 288 287 282 278 277 271 270 277 275 107 95 88 83 81 86 86 78 68 58 51 38 31 30 23 20 19 20 19 15 13 12 10 11 11 10 10 10 13 21 31 41 56 83 138 166 175 171 161 168 179 219 240 226 218 212 207 205 208 212 215 216 215 212 209 206 205 205 206 206 204 202 202 201 200 197 198 199 196 194 194 193 189 182 180 186 197
249 244 248 259 261 263 268 276 283 283 286 289 291 285 275 269 264 259 250 106 105 101 91 85 83 85 86 83 72 60 54 48 38 32 25 21 19 19 20 17 15 15 13 12 13 13 14 15 21 30 39 44 43 46 75 150 167 161 161 170 166 213 229 216 213 212 212 213 212 214 218 220 221 217 212 207 206 205 203 204 204 204 203 200 198 198 199 199 198 197 195 195 195 191 185 181 189
255 243 244 257 261 265 275 287 295 294 284 274 271 277 274 263 265 254 151 114 106 103 101 97 93 88 83 79 75 68 62 57 48 39 31 25 20 20 22 19 18 17 13 13 15 18 21 23 29 35 40 40 38 39 50 87 131 145 147 141 128 185 203 203 215 216 215 216 217 222 223 225 225 222 218 213 215 217 211 206 205 204 201 199 197 197 199 199 199 198 196 196 197 200 195 184 186
259 247 247 266 274 278 290 300 299 282 279 268 217 268 283 277 264 255 191 144 136 128 117 112 105 95 89 80 77 74 65 57 55 47 37 31 24 21 23 22 20 17 15 16 19 22 25 29 35 41 43 44 44 42 47 60 70 81 94 88 76 116 160 140 159 208 209 212 218 223 223 222 219 217 218 215 216 220 218 213 208 203 200 197 197 197 197 198 200 199 200 201 202 205 202 191 187
254 257 245 278 301 294 295 296 279 273 286 277 247 255 278 274 258 251 229 176 152 151 133 118 114 104 96 88 80 77 71 62 56 48 41 35 28 25 26 24 23 21 19 20 22 24 26 30 35 41 45 49 51 52 56 61 58 52 54 61 65 73 94 104 98 91 108 148 170 186 217 219 212 211 213 211 210 213 216 217 213 205 199 195 196 199 199 200 202 203 204 206 208 210 211 205 197
253 284 275 253 291 287 295 294 276 279 286 273 250 234 264 269 260 243 230 206 174 163 148 132 123 113 105 94 87 84 78 69 61 55 45 38 33 30 29 27 25 24 23 24 26 27 28 31 36 41 42 44 50 57 62 66 64 60 58 61 65 70 82 87 78 73 73 67 68 68 63 70 133 209 217 213 209 212 218 220 216 205 196 193 196 202 206 208 208 211 212 211 211 212 213 213 208
271 42 341 302 276 274 279 265 265 268 262 263 254 224 250 270 267 239 234 223 185 160 143 131 124 117 110 99 95 91 85 73 64 59 49 43 39 33 32 31 28 27 27 29 31 32 33 34 38 42 41 40 46 56 63 67 69 67 63 63 64 67 72 73 71 71 69 67 69 70 67 65 65 66 59 52 95 226 229 225 213 198 189 190 198 207 214 217 218 221 223 220 216 213 211 211 209
324 19 312 300 276 258 249 238 247 251 250 255 248 231 243 267 263 216 245 243 159 146 141 138 134 125 115 107 101 91 86 79 67 62 51 45 41 37 36 33 30 28 28 31 33 34 36 37 40 43 42 41 44 52 60 65 69 70 67 67 68 69 70 69 66 64 64 67 70 74 72 68 66 63 58 54 47 32 237 222 204 186 182 187 199 213 221 228 231 229 223 222 221 216 214 212 207
318 330 291 301 273 248 243 229 218 234 251 250 230 230 233 251 261 181 207 294 127 145 159 154 146 135 122 111 103 91 84 78 68 63 50 42 39 36 36 34 31 29 29 30 32 34 36 38 41 43 43 42 44 49 56 61 66 68 68 69 69 70 72 69 63 58 58 59 62 70 74 71 68 65 67 64 50 39 28 255 225 204 199 207 220 226 228 231 236 234 227 227 224 219 219 216 212
196 200 210 250 260 254 248 234 217 233 252 246 226 233 235 248 265 135 149 101 85 106 136 143 140 131 124 112 104 92 84 81 71 64 55 45 39 36 36 34 33 32 31 32 33 36 38 39 42 44 43 43 45 49 53 57 60 61 64 67 66 67 70 69 65 61 59 57 61 68 69 66 67 67 70 67 53 44 42 37 26 302 253 247 245 239 234 233 236 237 236 234 230 228 228 225 222
196 197 196 216 233 249 249 244 238 242 253 243 212 222 250 254 246 127 133 107 77 71 89 111 119 120 117 110 105 97 89 81 72 68 61 53 48 45 42 38 37 37 36 36 36 38 40 41 43 45 45 45 48 49 51 54 56 57 60 62 63 65 65 66 65 62 61 60 62 66 65 63 62 61 60 60 60 59 54 50 49 41 13 284 257 246 243 241 238 238 237 236 235 236 236 232 229
205 201 209 224 224 240 249 250 253 264 285 273 146 115 218 209 144 108 109 101 91 82 85 94 100 109 112 111 108 98 90 81 77 75 68 62 57 51 49 44 42 42 40 40 40 40 43 44 45 47 46 47 49 50 51 52 54 56 58 59 59 60 61 63 63 62 63 61 61 62 62 60 57 56 56 59 64 68 65 61 49 32 27 18 312 241 242 242 237 232 231 235 239 241 242 241 237
213 191 218 239 238 247 261 270 270 287 299 278 222 228 240 149 98 94 102 106 107 106 111 114 116 123 124 118 110 98 93 91 87 82 73 68 62 56 53 50 47 47 45 44 43 43 45 46 48 49 49 49 50 51 51 51 52 55 57 58 58 57 57 59 60 60 61 60 59 59 57 55 54 53 54 57 62 67 71 74 70 54 43 39 43 228 240 243 242 235 228 232 238 242 247 250 248
244 199 224 246 244 248 267 276 276 271 268 260 234 245 249 104 122 140 129 130 132 137 143 138 139 140 133 121 115 111 105 101 94 87 81 74 70 65 59 56 53 51 49 48 48 47 48 49 50 51 51 51 51 51 52 52 53 56 57 57 59 59 58 56 56 57 59 59 58 55 53 53 52 51 50 50 54 61 66 73 76 74 69 63 57 48 356 266 262 254 241 238 237 237 243 250 252
273 244 254 354 61 216 251 266 270 256 257 259 251 256 245 202 227 166 162 171 164 167 161 148 150 149 139 127 120 118 114 110 103 95 90 82 79 74 69 64 60 57 55 53 52 51 52 52 52 52 52 51 50 52 53 54 55 55 55 55 57 59 59 58 58 58 59 59 56 52 50 50 49 48 49 48 49 53 55 59 64 68 72 71 64 58 52 40 314 261 248 241 238 236 239 248 255
235 242 43 52 259 266 222 229 251 248 255 262 259 260 251 235 221 170 188 194 175 170 164 156 161 156 142 132 127 127 124 120 111 104 97 90 86 81 77 72 67 64 61 58 55 54 54 54 54 55 55 53 53 53 54 56 56 55 56 57 57 59 59 59 59 58 57 57 55 50 48 47 45 45 46 47 47 48 48 48 49 50 52 53 50 49 47 47 46 22 316 273 259 250 246 241 236
228 246 255 201 244 265 243 248 270 253 259 268 264 262 255 254 252 189 197 189 169 167 167 164 165 155 142 137 137 137 129 122 114 110 105 98 95 89 84 80 73 69 66 61 59 57 56 56 56 57 56 56 55 54 55 54 53 54 56 56 56 57 58 58 58 57 55 54 53 51 47 43 42 42 43 44 44 45 45 45 46 46 46 45 42 39 36 38 40 35 26 2 331 307 287 265 244
211 223 230 223 233 251 254 257 246 243 265 275 275 272 265 329 338 260 184 167 164 164 160 162 158 144 139 139 140 136 127 122 116 112 109 108 103 94 88 84 79 74 69 65 62 59 58 57 56 57 56 57 56 55 56 55 54 54 55 54 54 54 55 56 57 55 54 52 52 51 48 44 42 40 40 42 41 41 41 42 44 44 43 44 44 41 37 35 33 29 24 16 2 345 332 318 292
232 220 215 216 219 224 246 248 220 212 246 249 260 271 269 336 342 355 97 135 150 150 149 151 145 137 135 136 134 129 123 119 115 112 112 108 102 95 90 85 81 75 70 67 63 60 59 56 56 57 57 58 57 57 57 57 57 56 55 55 54 53 53 54 54 53 51 50 49 49 48 47 43 39 40 41 39 38 37 36 38 39 40 41 42 42 40 39 37 30 23 14 4 354 348 343 329